• In Uzbekistan
  • List of Countries
  • For 7 days
  • Water Temperature
  • Satellite Maps
  • Weather Map
  • Weather Widgets
  • user-avatar
    Login

    Hourly Weather Priozernyy

    Today, 19 August, Sunday

    Time Temperature Precipitation Wind Pressure Humidity
    00:00 +4°C° 0 mm 2 mps 751 mmHg 93%
    01:00 +3°C° 0 mm 3 mps 751 mmHg 94%
    02:00 +3°C° 0 mm 3 mps 750 mmHg 94%
    03:00 +3°C° 0 mm 3 mps 750 mmHg 94%
    04:00 +3°C° 0 mm 4 mps 750 mmHg 94%
    05:00 +4°C° 0 mm 4 mps 750 mmHg 89%
    06:00 +6°C° 0 mm 5 mps 749 mmHg 85%
    07:00 +7°C° 0 mm 5 mps 749 mmHg 80%
    08:00 +8°C° 0 mm 6 mps 748 mmHg 76%
    09:00 +10°C° 0 mm 6 mps 748 mmHg 72%
    10:00 +11°C° 0 mm 6 mps 747 mmHg 67%
    11:00 +11°C° 0.4 mm 6 mps 747 mmHg 72%
    12:00 +11°C° 0.4 mm 6 mps 747 mmHg 77%
    13:00 +11°C° 0.4 mm 6 mps 746 mmHg 82%
    14:00 +11°C° 0.2 mm 6 mps 746 mmHg 84%
    15:00 +12°C° 0.2 mm 5 mps 746 mmHg 85%
    16:00 +12°C° 0.2 mm 4 mps 745 mmHg 87%
    17:00 +13°C° 0 mm 4 mps 745 mmHg 87%
    18:00 +13°C° 0 mm 4 mps 745 mmHg 87%
    19:00 +13°C° 0 mm 4 mps 745 mmHg 88%
    20:00 +13°C° 0 mm 4 mps 745 mmHg 89%
    21:00 +12°C° 0 mm 4 mps 745 mmHg 90%
    22:00 +12°C° 0 mm 5 mps 745 mmHg 91%
    23:00 +10°C° 0 mm 5 mps 744 mmHg 92%

    Tomorrow, 20 August, Monday

    Time Temperature Precipitation Wind Pressure Humidity
    00:00 +10°C° 0 mm 5 mps 744 mmHg 92%
    01:00 +11°C° 0 mm 4 mps 744 mmHg 93%
    02:00 +11°C° 0 mm 4 mps 744 mmHg 93%
    03:00 +10°C° 0 mm 4 mps 743 mmHg 93%
    04:00 +10°C° 0 mm 4 mps 743 mmHg 93%
    05:00 +10°C° 0 mm 5 mps 743 mmHg 90%
    06:00 +13°C° 0 mm 5 mps 743 mmHg 86%
    07:00 +14°C° 0 mm 5 mps 743 mmHg 82%
    08:00 +16°C° 0 mm 6 mps 743 mmHg 75%
    09:00 +17°C° 0 mm 6 mps 742 mmHg 67%
    10:00 +20°C° 0 mm 6 mps 742 mmHg 59%
    11:00 +21°C° 0 mm 6 mps 742 mmHg 57%
    12:00 +21°C° 0 mm 7 mps 741 mmHg 54%
    13:00 +22°C° 0 mm 7 mps 741 mmHg 51%
    14:00 +22°C° 0 mm 6 mps 741 mmHg 51%
    15:00 +22°C° 0 mm 6 mps 740 mmHg 52%
    16:00 +22°C° 0 mm 6 mps 740 mmHg 52%
    17:00 +21°C° 0 mm 6 mps 740 mmHg 57%
    18:00 +20°C° 0 mm 5 mps 740 mmHg 61%
    19:00 +19°C° 0 mm 5 mps 739 mmHg 65%
    20:00 +16°C° 0 mm 5 mps 739 mmHg 68%
    21:00 +15°C° 0 mm 5 mps 739 mmHg 71%
    22:00 +14°C° 0 mm 5 mps 739 mmHg 74%
    23:00 +14°C° 0 mm 5 mps 739 mmHg 78%

    Day after tomorrow, 21 August, Tuesday

    Time Temperature Precipitation Wind Pressure Humidity
    00:00 +13°C° 0 mm 4 mps 739 mmHg 81%
    01:00 +12°C° 0 mm 4 mps 739 mmHg 85%
    02:00 +12°C° 0.6 mm 3 mps 739 mmHg 87%
    03:00 +12°C° 0.6 mm 3 mps 739 mmHg 89%
    04:00 +12°C° 0.6 mm 3 mps 739 mmHg 92%
    05:00 +12°C° 2.1 mm 3 mps 739 mmHg 92%
    06:00 +13°C° 2.1 mm 2 mps 740 mmHg 92%
    07:00 +13°C° 2.1 mm 2 mps 740 mmHg 92%
    08:00 +14°C° 1.6 mm 2 mps 740 mmHg 91%
    09:00 +14°C° 1.6 mm 2 mps 740 mmHg 89%
    10:00 +14°C° 1.6 mm 1 mps 741 mmHg 87%
    11:00 +15°C° 0.3 mm 2 mps 741 mmHg 80%
    12:00 +16°C° 0.3 mm 2 mps 741 mmHg 72%
    13:00 +17°C° 0.3 mm 2 mps 741 mmHg 65%
    14:00 +18°C° 0.1 mm 2 mps 742 mmHg 61%
    15:00 +18°C° 0.1 mm 2 mps 742 mmHg 57%
    16:00 +18°C° 0.1 mm 2 mps 742 mmHg 53%
    17:00 +17°C° 0 mm 2 mps 742 mmHg 58%
    18:00 +16°C° 0 mm 1 mps 743 mmHg 62%
    19:00 +15°C° 0 mm 1 mps 743 mmHg 67%
    20:00 +13°C° 0 mm 1 mps 743 mmHg 72%
    21:00 +12°C° 0 mm 1 mps 743 mmHg 77%
    22:00 +11°C° 0 mm 1 mps 743 mmHg 81%
    23:00 +11°C° 0 mm 1 mps 743 mmHg 82%

    22 August, Wednesday

    Time Temperature Precipitation Wind Pressure Humidity
    00:00 +9°C° 0 mm 2 mps 743 mmHg 83%
    01:00 +9°C° 0 mm 2 mps 743 mmHg 83%
    02:00 +9°C° 0 mm 2 mps 743 mmHg 84%
    03:00 +9°C° 0 mm 2 mps 743 mmHg 85%
    04:00 +9°C° 0 mm 3 mps 743 mmHg 86%
    05:00 +10°C° 0 mm 3 mps 743 mmHg 82%
    06:00 +12°C° 0 mm 4 mps 742 mmHg 77%
    07:00 +14°C° 0 mm 4 mps 742 mmHg 73%
    08:00 +15°C° 0 mm 5 mps 742 mmHg 67%
    09:00 +16°C° 0 mm 5 mps 741 mmHg 61%
    10:00 +19°C° 0 mm 6 mps 741 mmHg 55%
    11:00 +19°C° 0 mm 6 mps 741 mmHg 55%
    12:00 +20°C° 0 mm 7 mps 741 mmHg 55%
    13:00 +21°C° 0 mm 7 mps 740 mmHg 55%
    14:00 +21°C° 0 mm 7 mps 740 mmHg 55%
    15:00 +21°C° 0 mm 7 mps 740 mmHg 54%
    16:00 +21°C° 0 mm 7 mps 740 mmHg 54%
    17:00 +20°C° 0 mm 6 mps 740 mmHg 56%
    18:00 +19°C° 0 mm 5 mps 740 mmHg 59%
    19:00 +17°C° 0 mm 5 mps 740 mmHg 61%
    20:00 +15°C° 0 mm 5 mps 740 mmHg 64%
    21:00 +14°C° 0 mm 5 mps 740 mmHg 66%
    22:00 +13°C° 0 mm 5 mps 740 mmHg 69%
    23:00 +13°C° 0 mm 5 mps 740 mmHg 71%

    23 August, Thursday

    Time Temperature Precipitation Wind Pressure Humidity
    00:00 +12°C° 0 mm 4 mps 740 mmHg 73%
    01:00 +12°C° 0 mm 4 mps 740 mmHg 75%
    02:00 +12°C° 0 mm 4 mps 740 mmHg 76%
    03:00 +12°C° 0 mm 4 mps 740 mmHg 77%
    04:00 +11°C° 0 mm 4 mps 740 mmHg 78%
    05:00 +13°C° 0 mm 4 mps 740 mmHg 73%
    06:00 +14°C° 0 mm 4 mps 740 mmHg 68%
    07:00 +17°C° 0 mm 4 mps 740 mmHg 63%
    08:00 +17°C° 0 mm 5 mps 740 mmHg 60%
    09:00 +19°C° 0 mm 5 mps 741 mmHg 57%
    10:00 +20°C° 0 mm 5 mps 741 mmHg 54%
    11:00 +20°C° 0 mm 5 mps 741 mmHg 54%
    12:00 +20°C° 0 mm 5 mps 741 mmHg 55%
    13:00 +20°C° 0 mm 5 mps 741 mmHg 55%
    14:00 +20°C° 0 mm 4 mps 741 mmHg 55%
    15:00 +21°C° 0 mm 4 mps 741 mmHg 55%
    16:00 +21°C° 0 mm 3 mps 742 mmHg 55%
    17:00 +19°C° 0 mm 3 mps 742 mmHg 60%
    18:00 +18°C° 0 mm 2 mps 742 mmHg 66%
    19:00 +17°C° 0 mm 2 mps 742 mmHg 71%
    20:00 +16°C° 0 mm 1 mps 742 mmHg 74%
    21:00 +16°C° 0 mm 1 mps 742 mmHg 77%
    22:00 +15°C° 0 mm 1 mps 742 mmHg 80%
    23:00 +15°C° 0.1 mm 1 mps 742 mmHg 82%

    24 August, Friday

    Time Temperature Precipitation Wind Pressure Humidity
    00:00 +14°C° 0.1 mm 1 mps 742 mmHg 84%
    01:00 +14°C° 0.1 mm 1 mps 742 mmHg 86%
    02:00 +14°C° 0.2 mm 1 mps 742 mmHg 87%
    03:00 +14°C° 0.2 mm 1 mps 742 mmHg 88%
    04:00 +14°C° 0.2 mm 1 mps 742 mmHg 89%
    05:00 +14°C° 0.6 mm 1 mps 742 mmHg 88%
    06:00 +15°C° 0.6 mm 1 mps 742 mmHg 87%
    07:00 +15°C° 0.6 mm 1 mps 742 mmHg 85%
    08:00 +15°C° 0.7 mm 1 mps 742 mmHg 85%
    09:00 +15°C° 0.7 mm 1 mps 742 mmHg 85%
    10:00 +16°C° 0.7 mm 2 mps 742 mmHg 84%
    11:00 +15°C° 0.8 mm 2 mps 742 mmHg 85%
    12:00 +15°C° 0.8 mm 2 mps 742 mmHg 86%
    13:00 +15°C° 0.8 mm 1 mps 742 mmHg 88%
    14:00 +15°C° 0.5 mm 2 mps 742 mmHg 89%
    15:00 +14°C° 0.5 mm 2 mps 742 mmHg 90%
    16:00 +14°C° 0.5 mm 2 mps 742 mmHg 92%
    17:00 +12°C° 0.7 mm 3 mps 742 mmHg 93%
    18:00 +12°C° 0.7 mm 3 mps 742 mmHg 94%
    19:00 +11°C° 0.7 mm 3 mps 742 mmHg 95%
    20:00 +11°C° 0.8 mm 3 mps 742 mmHg 95%
    21:00 +11°C° 0.8 mm 3 mps 743 mmHg 95%
    22:00 +10°C° 0.8 mm 3 mps 743 mmHg 95%
    23:00 +10°C° 0.6 mm 3 mps 743 mmHg 95%
    Show more